User: anonymous   Login
Location: Vancouver
(49.2500°N, 123.1330°W)
Time: 09:40:50
(UTC-07:00)
Language:

AO-27 - Orbit

View from above orbital plane
View from above orbital plane
View from above satellite
View from above satellite

Ground track
Ground track

The orbit data is extracted from the following two-line orbital elements,

1 22825U 93061C   16237.79719954  .00000008  00000-0  20493-4 0  9998
2 22825  98.7657 194.4911 0009417 113.8433 246.3737 14.29965021195046
Epoch (UTC): 24 August 2016 19:07:58
Eccentricity: 0.0009417
inclination: 98.7657°
perigee height: 785 km
apogee height: 798 km
right ascension of ascending node: 194.4911°
argument of perigee: 113.8433°
revolutions per day: 14.29965021
mean anomaly at epoch: 246.3737°
orbit number at epoch: 19504

The dashed part of the orbit path shows where the satellite is in the earth's shadow,  

DLR